Tracking 19832 objects as of 24-Aug-2019
HD Live streaming from Space Station
objects crossing your sky now

ATLAS 2A CENTAUR R/B


ATLAS 2A CENTAUR R/B is no longer on orbit


NORAD ID: 27567
Int'l Code: 2002-055B
Perigee: N/A
Apogee: N/A
Inclination: N/A
Period: N/A
Semi major axis: N/A
RCS: N/A
Launch date: December 5, 2002
Source: United States (US)
Launch site: AIR FORCE EASTERN TEST RANGE (AFETR)
Decay date: 2018-11-04

Note: This is a ROCKET BODY
aabbcc
Your satellite tracking list
Your tracking list is empty




NASA's NSSDC Master Catalog

Two Line Element Set (TLE):
1 27567U 02055B   18308.67377789  .17212021 -11073-4  42067-3 0  9998
2 27567  26.7534 304.9346 0133234 187.1940 329.8683 16.22004450291310
Source of the keplerian elements: AFSPC